Redmond, OR

12:09 PM PDT on September 18, 2019 (GMT -0700)
Roberts Field Airport

Weather History for KRDM - July, 2019

Change the Weather History Date:

Tuesday, July 23, 2019

  Actual Average Record
Temperature  
Mean Temperature 75 °F 67 °F  
Max Temperature 96 °F 87 °F 104 °F (2006)
Min Temperature 53 °F 47 °F 32 °F (1963)
Degree Days  
Heating Degree Days 0 1  
Month to date heating degree days 32 60  
Since 1 June heating degree days 181 277  
Since 1 July heating degree days 32 60  
Cooling Degree Days 10 4  
Month to date cooling degree days 52 68  
Year to date cooling degree days 80 97  
Since 1 June cooling degree days 80 92  
Growing Degree Days 24 (Base 50)    
Moisture  
Dew Point 48 °F    
Average Humidity 47    
Maximum Humidity 77    
Minimum Humidity 17    
Precipitation  
Precipitation 0.00 in 0.01 in 0.42 in (1994)
Month to date precipitation 0.22 0.41  
Year to date precipitation 7.46 5.09  
Sea Level Pressure  
Sea Level Pressure 29.97 in    
Wind  
Wind Speed 10 mph (WNW)    
Max Wind Speed 25 mph    
Max Gust Speed 31 mph    
Visibility 10 miles    
Events      
T = Trace of Precipitation, MM = Missing Value Source: NWS Daily Summary

Daily Weather History Graph

Daily Weather History Graph

Search for Another Location

Airport or City:

Astronomy

Jul. 23, 2019 Rise Set
Actual Time 5:42 AM PDT 8:39 PM PDT
Civil Twilight 5:08 AM PDT 9:13 PM PDT
Nautical Twilight 4:24 AM PDT 9:56 PM PDT
Astronomical Twilight 3:32 AM PDT 10:48 PM PDT
Moon No Moon Rise 12:13 PM PDT (7/23)
Length of Visible Light 16h 05m
Length of Day
14h 56m
Waning Gibbous, 62% of the Moon is Illuminated
Jul 23
Waning Gibbous
Jul 24
Last Quarter
Jul 31
New
Aug 7
First Quarter
Aug 15
Full

Hourly Weather History & Observations

Time (PDT) Temp. Dew Point Humidity Pressure Visibility Wind Dir Wind Speed Gust Speed Precip Events Conditions
12:56 AM 60.1 °F 48.0 °F 64% 30.00 in 10.0 mi SSW 3.5 mph - N/A   Clear
1:56 AM 61.0 °F 48.9 °F 64% 29.99 in 10.0 mi Calm Calm - N/A   Clear
2:56 AM 59.0 °F 48.9 °F 69% 29.98 in 10.0 mi Calm Calm - N/A   Clear
3:56 AM 55.0 °F 48.0 °F 77% 29.99 in 10.0 mi SSE 6.9 mph - N/A   Clear
4:56 AM 55.0 °F 48.0 °F 77% 29.99 in 10.0 mi South 4.6 mph - N/A   Clear
5:56 AM 55.0 °F 48.0 °F 77% 30.00 in 10.0 mi SSE 4.6 mph - N/A   Clear
6:56 AM 61.0 °F 50.0 °F 67% 30.00 in 10.0 mi ESE 4.6 mph - N/A   Clear
7:56 AM 68.0 °F 50.0 °F 52% 29.99 in 10.0 mi East 4.6 mph - N/A   Clear
8:56 AM 73.0 °F 51.1 °F 46% 29.98 in 10.0 mi Variable 3.5 mph - N/A   Clear
9:56 AM 79.0 °F 51.1 °F 38% 29.96 in 10.0 mi Variable 4.6 mph - N/A   Clear
10:56 AM 81.0 °F 50.0 °F 34% 29.96 in 10.0 mi Calm Calm - N/A   Clear
11:56 AM 87.1 °F 50.0 °F 28% 29.94 in 10.0 mi West 6.9 mph - N/A   Partly Cloudy
12:56 PM 93.0 °F 43.0 °F 18% 29.90 in 10.0 mi SW 15.0 mph 19.6 mph N/A   Clear
1:56 PM 93.9 °F 43.0 °F 17% 29.88 in 10.0 mi SSW 13.8 mph 20.7 mph N/A   Clear
2:56 PM 93.9 °F 48.0 °F 21% 29.87 in 10.0 mi WNW 13.8 mph - N/A   Clear
3:56 PM 91.0 °F 51.1 °F 25% 29.88 in 10.0 mi NW 19.6 mph 26.5 mph N/A   Clear
4:56 PM 87.1 °F 50.0 °F 28% 29.90 in 10.0 mi WNW 18.4 mph 26.5 mph N/A   Scattered Clouds
5:56 PM 82.0 °F 50.0 °F 33% 29.92 in 10.0 mi WNW 21.9 mph 28.8 mph N/A   Clear
6:56 PM 75.0 °F 50.0 °F 41% 29.94 in 10.0 mi NW 17.3 mph - N/A   Clear
7:56 PM 71.1 °F 50.0 °F 47% 29.97 in 10.0 mi NW 16.1 mph 26.5 mph N/A   Clear
8:56 PM 66.9 °F 48.0 °F 51% 30.00 in 10.0 mi NNW 17.3 mph - N/A   Clear
9:56 PM 64.0 °F 46.0 °F 52% 30.04 in 10.0 mi NNW 12.7 mph - N/A   Clear
10:56 PM 62.1 °F 46.0 °F 56% 30.07 in 10.0 mi NW 8.1 mph - N/A   Clear
11:56 PM 61.0 °F 46.0 °F 58% 30.09 in 10.0 mi NW 6.9 mph - N/A   Clear